Location: Casco Volunteer Fire Department
(44.5576°N, 87.6146°W)
Time: 05:29:28
(UTC+00:00)

BlueWalker 3 - Pass Details

Date: 13 March 2026
Orbit: 449 x 457 km, 53.2° (Epoch: 15 April)

Event Time Altitude Azimuth Distance (km) Brightness Sun altitude
Exits shadow 09:33:16 22° 26° (NNE) 1,053 4.0 -27.4°
Drops below altitude 10° 09:35:38 10° 66° (ENE) 1,600 5.5 -27.0°
Sets 09:38:05 0° 81° (E) 2,471 6.6 -26.6°
